Location: Bo?a Wola
(50.4192°N, 19.7966°E)
Time: 14:10:02
(UTC+00:00)

Cosmos 1934 Rocket - Pass Details

Date: 11 September 2024
Orbit: 938 x 997 km, 83.0° (Epoch: 08 October)

Event Time Altitude Azimuth Distance (km) Brightness Sun altitude
Rises 00:50:23 0° 356° (N) 3,682 7.7 -28.2°
Reaches altitude 10° 00:53:29 10° 11° (N) 2,741 7.1 -27.8°
Maximum altitude 00:58:23 23° 63° (ENE) 1,950 6.2 -27.3°
Drops below altitude 10° 01:03:19 10° 114° (ESE) 2,754 6.5 -26.8°
Sets 01:06:25 0° 128° (SE) 3,704 7.1 -26.5°
